FW6181 Weather Reports


Display with metric or nautical units.
time (UTC)temp
F
wind
direction
speed
MPH
gust
MPH
rain 1hr
in
rain 24hr
in
rain mn
in
humidity
%
barometer
mb
20260510141545 68 49 0.0 0.0 0.00 1.71 0.01 99 1016.7
20260510140046 68 91 0.0 1.0 0.00 1.71 0.01 99 1016.6
20260510134558 68 180 0.0 0.0 0.00 1.95 0.01 99 1016.3
20260510133038 68 49 0.0 0.0 0.00 1.95 0.01 99 1016.0
20260510131536 67 191 0.0 0.0 0.00 1.95 0.01 99 1016.1
20260510130033 66 125 0.0 0.0 0.00 1.95 0.01 99 1015.8
20260510124532 66 179 0.0 0.0 0.00 2.82 0.01 99 1015.6
20260510123030 66 359 0.0 1.0 0.01 2.82 0.01 99 1015.5
20260510121529 66 135 0.0 0.0 0.01 2.82 0.01 99 1015.3
20260510120036 65 46 0.0 0.0 0.01 2.82 0.01 99 1014.9
20260510114523 65 27 0.0 0.0 0.01 2.82 0.01 99 1014.6
20260510113019 65 327 0.0 0.0 0.00 2.81 0.00 99 1014.3
20260510111517 65 327 0.0 0.0 0.00 2.81 0.00 99 1014.0
20260510110016 65 155 0.0 0.0 0.00 2.81 0.00 99 1013.5
20260510104514 65 88 0.0 0.0 0.00 2.81 0.00 99 1013.3
20260510103011 65 101 0.0 0.0 0.00 2.81 0.00 99 1013.2
20260510101509 65 16 0.0 0.0 0.00 2.81 0.00 99 1013.0
20260510100007 65 5 0.0 0.0 0.00 2.81 0.00 99 1012.8
20260510094521 65 95 0.0 0.0 0.00 2.81 0.00 99 1012.6
20260510093007 65 77 0.0 0.0 0.00 2.81 0.00 99 1012.7
20260510091506 65 119 0.0 0.0 0.00 2.81 0.00 99 1012.7
20260510090005 65 111 0.0 0.0 0.00 2.81 0.00 99 1012.8
20260510084504 65 110 0.0 1.0 0.00 2.97 0.00 99 1012.9
20260510083004 65 78 0.0 0.0 0.00 2.97 0.00 99 1012.8
20260510081502 66 89 0.0 0.0 0.00 2.97 0.00 99 1012.5
20260510080002 66 89 0.0 0.0 0.00 3.08 0.00 99 1012.3
20260510074603 66 89 0.0 0.0 0.00 3.08 0.00 99 1012.4
20260510073059 66 89 0.0 0.0 0.00 3.08 0.00 99 1012.3
20260510071559 66 89 0.0 0.0 0.00 3.08 0.00 99 1012.2
20260510070100 66 348 0.0 0.0 0.00 3.08 0.00 99 1012.3
20260510064555 66 5 0.0 0.0 0.00 3.11 0.00 99 1012.4
20260510063102 66 16 0.0 0.0 0.00 3.11 0.00 99 1012.6
20260510061554 66 78 0.0 0.0 0.00 3.11 0.00 99 1012.5
20260510060058 66 78 0.0 0.0 0.00 3.11 0.00 99 1012.6
20260510054557 66 78 0.0 0.0 0.00 3.68 0.00 99 1012.7
20260510053057 66 78 0.0 0.0 0.00 3.68 0.00 98 1012.5
20260510051631 66 78 0.0 0.0 0.00 3.68 0.00 98 1012.7
20260510050048 66 78 0.0 0.0 0.00 3.68 0.00 98 1012.7
20260510044549 67 78 0.0 0.0 0.00 3.68 3.68 99 1012.6
20260510043122 67 78 0.0 0.0 0.00 3.68 3.68 98 1012.5
20260510041551 67 78 0.0 0.0 0.00 3.68 3.68 99 1012.5
20260510040046 67 78 0.0 2.0 0.00 3.68 3.68 99 1012.1
20260510034553 67 124 0.0 0.0 0.00 3.68 3.68 98 1012.4
20260510033049 68 124 0.0 0.0 0.00 3.68 3.68 98 1013.2
20260510031618 68 124 0.0 0.0 0.00 3.68 3.68 98 1013.2
20260510030044 68 124 0.0 0.0 0.00 3.68 3.68 98 1013.1
20260510024546 68 124 0.0 0.0 0.00 3.68 3.68 98 1012.6
20260510023052 68 179 0.0 1.0 0.00 3.68 3.68 98 1012.5
20260510021545 68 197 0.0 0.0 0.00 3.68 3.68 98 1012.7
20260510020043 68 198 0.0 0.0 0.00 3.68 3.68 98 1012.9
20260510014542 68 200 0.0 0.0 0.04 3.68 3.68 98 1012.2
20260510013042 68 200 0.0 3.0 0.04 3.68 3.68 98 1011.5
20260510011555 68 206 0.0 4.0 0.05 3.68 3.68 98 1011.5
20260510010050 68 204 0.0 3.0 0.05 3.68 3.68 98 1011.6
20260510004539 68 226 0.0 0.0 0.01 3.64 3.64 98 1012.2
20260510003039 68 226 0.0 0.0 0.02 3.64 3.64 98 1012.1
20260510001539 68 143 0.0 2.0 0.01 3.63 3.63 98 1011.1
20260510000037 68 70 0.0 0.0 0.01 3.63 3.63 98 1011.5
20260509234537 68 203 0.0 0.0 0.02 3.64 3.63 98 1011.9
20260509233036 68 177 0.0 0.0 0.01 3.63 3.62 98 1012.0
20260509231537 68 177 0.0 0.0 0.02 3.63 3.62 98 1012.0
20260509230035 68 177 0.0 0.0 0.04 3.63 3.62 98 1012.0
20260509224535 67 177 0.0 0.0 0.04 3.71 3.61 98 1011.3
20260509223035 67 177 0.0 0.0 0.05 3.71 3.61 98 1011.1
20260509221538 67 177 0.0 1.0 0.04 3.70 3.60 98 1011.0
20260509220037 67 210 0.0 5.0 0.02 3.68 3.58 98 1011.6
20260509214534 67 196 0.0 0.0 0.01 3.73 3.57 98 1011.4
20260509213037 67 192 0.0 0.0 0.00 3.72 3.56 98 1011.3
20260509211601 67 192 0.0 0.0 0.01 3.72 3.56 98 1011.2
20260509210033 67 192 0.0 4.0 0.04 3.72 3.56 98 1010.0
20260509204531 67 163 0.0 0.0 0.10 3.87 3.56 98 1010.6
20260509203040 67 225 0.0 3.0 0.15 3.87 3.56 98 1010.5
20260509201531 67 134 0.0 4.0 0.21 3.86 3.55 98 1011.3
20260509200030 67 212 0.0 0.0 0.25 3.83 3.52 98 1012.1
20260509194530 67 222 0.0 0.0 0.23 3.83 3.45 98 1012.4
20260509193029 66 224 0.0 4.0 0.23 3.79 3.41 98 1011.9
20260509191528 66 211 2.0 6.0 0.19 3.72 3.34 98 1012.3
20260509190027 66 201 0.0 0.0 0.14 3.64 3.26 98 1012.3
20260509184526 66 209 0.0 0.0 0.13 3.60 3.22 98 1012.1
20260509183027 65 206 0.0 2.0 0.13 3.56 3.18 98 1012.7
20260509181528 65 139 0.0 3.0 0.13 3.53 3.15 98 1012.0
20260509180025 65 207 0.0 1.0 0.12 3.50 3.12 98 1011.6
20260509174526 65 199 0.0 4.0 0.23 3.46 3.08 98 1012.2
20260509173025 65 25 0.0 4.0 0.36 3.43 3.05 98 1012.0
20260509171524 65 198 0.0 7.0 0.44 3.40 3.02 98 1012.4
20260509170024 65 173 0.0 7.0 0.47 3.38 3.00 98 1012.4
20260509164522 64 202 0.0 3.0 0.35 3.21 2.83 98 1012.6
20260509163024 64 182 1.0 6.0 0.30 3.07 2.69 98 1012.0
20260509161522 64 138 0.0 3.0 0.23 2.95 2.57 98 1013.0
20260509160023 64 191 0.0 2.0 0.20 2.91 2.52 98 1012.3
20260509154521 64 130 0.0 4.0 0.19 2.85 2.47 98 1013.2
20260509153022 64 193 0.0 5.0 0.20 2.77 2.39 98 1013.0
20260509151519 65 188 0.0 5.0 0.28 2.72 2.34 98 1013.0
20260509150018 65 173 0.0 2.0 0.35 2.71 2.33 98 1012.8
20260509144516 65 110 0.0 2.0 0.31 2.65 2.27 97 1012.5
20260509143022 65 108 0.0 2.0 0.28 2.57 2.19 97 1012.9